Volver al catálogo

COSMOS 1275 DEB

ActivoPO
NORAD 15541·DEBRIS·🇷🇺 Russia

Lanzado Jun 4, 1981 desde Plesetsk Cosmodrome

Loading…

Próximos Pases (próximas 24 horas)

TLE

ActualizadoSource: Space-Track

Época: Sep 13, 2026, 12:27 UTC

1 15541U 81053JZ  26256.51912381  .00000253  00000-0  20186-3 0  9994
2 15541  82.8852 269.4099 0033742 108.1167  45.3291 13.86892776133977

Sigue COSMOS 1275 DEB en tiempo real con AllMySat

Download on the App Store